Year,Month,Day,Hour,Minute,Value (Times are PST for temperature in C)
2016,04,19,00,00,13.60
2016,04,19,00,01,13.60
2016,04,19,00,02,13.60
2016,04,19,00,03,13.60
2016,04,19,00,04,13.60
2016,04,19,00,05,13.50
2016,04,19,00,06,13.50
2016,04,19,00,07,13.50
2016,04,19,00,08,13.50
2016,04,19,00,09,13.40
2016,04,19,00,10,13.40
2016,04,19,00,11,13.40
2016,04,19,00,12,13.30
2016,04,19,00,13,13.30
2016,04,19,00,14,13.30
2016,04,19,00,15,13.30
2016,04,19,00,16,13.30
2016,04,19,00,17,13.30
2016,04,19,00,18,13.30
2016,04,19,00,19,13.30
2016,04,19,00,20,13.30
2016,04,19,00,21,13.20
2016,04,19,00,22,13.20
2016,04,19,00,23,13.20
2016,04,19,00,24,13.20
2016,04,19,00,25,13.20
2016,04,19,00,26,13.20
2016,04,19,00,27,13.10
2016,04,19,00,28,13.00
2016,04,19,00,29,13.00
2016,04,19,00,30,12.90
2016,04,19,00,31,12.80
2016,04,19,00,32,12.80
2016,04,19,00,33,12.80
2016,04,19,00,34,12.80
2016,04,19,00,35,12.80
2016,04,19,00,36,12.80
2016,04,19,00,37,12.80
2016,04,19,00,38,12.70
2016,04,19,00,39,12.70
2016,04,19,00,40,12.70
2016,04,19,00,41,12.70
2016,04,19,00,42,12.70
2016,04,19,00,43,12.60
2016,04,19,00,44,12.60
2016,04,19,00,45,12.60
2016,04,19,00,46,12.60
2016,04,19,00,47,12.60
2016,04,19,00,48,12.50
2016,04,19,00,49,12.50
2016,04,19,00,50,12.50
2016,04,19,00,51,12.50
2016,04,19,00,52,12.40
2016,04,19,00,53,12.50
2016,04,19,00,54,12.50
2016,04,19,00,55,12.50
2016,04,19,00,56,12.50
2016,04,19,00,57,12.50
2016,04,19,00,58,12.50
2016,04,19,00,59,12.50
2016,04,19,01,00,12.50
2016,04,19,01,01,12.50
2016,04,19,01,02,12.50
2016,04,19,01,03,12.50
2016,04,19,01,04,12.50
2016,04,19,01,05,12.50
2016,04,19,01,06,12.50
2016,04,19,01,07,12.50
2016,04,19,01,08,12.40
2016,04,19,01,09,12.40
2016,04,19,01,10,12.40
2016,04,19,01,11,12.40
2016,04,19,01,12,12.40
2016,04,19,01,13,12.40
2016,04,19,01,14,12.40
2016,04,19,01,15,12.30
2016,04,19,01,16,12.30
2016,04,19,01,17,12.30
2016,04,19,01,18,12.30
2016,04,19,01,19,12.30
2016,04,19,01,20,12.30
2016,04,19,01,21,12.30
2016,04,19,01,22,12.30
2016,04,19,01,23,12.30
2016,04,19,01,24,12.20
2016,04,19,01,25,12.20
2016,04,19,01,26,12.20
2016,04,19,01,27,12.20
2016,04,19,01,28,12.20
2016,04,19,01,29,12.20
2016,04,19,01,30,12.20
2016,04,19,01,31,12.30
2016,04,19,01,32,12.30
2016,04,19,01,33,12.30
2016,04,19,01,34,12.30
2016,04,19,01,35,12.30
2016,04,19,01,36,12.30
2016,04,19,01,37,12.30
2016,04,19,01,38,12.30
2016,04,19,01,39,12.30
2016,04,19,01,40,12.30
2016,04,19,01,41,12.30
2016,04,19,01,42,12.30
2016,04,19,01,43,12.30
2016,04,19,01,44,12.30
2016,04,19,01,45,12.30
2016,04,19,01,46,12.30
2016,04,19,01,47,12.30
2016,04,19,01,48,12.30
2016,04,19,01,49,12.30
2016,04,19,01,50,12.30
2016,04,19,01,51,12.20
2016,04,19,01,52,12.20
2016,04,19,01,53,12.20
2016,04,19,01,54,12.20
2016,04,19,01,55,12.10
2016,04,19,01,56,12.10
2016,04,19,01,57,12.00
2016,04,19,01,58,12.00
2016,04,19,01,59,12.00
2016,04,19,02,00,12.00
2016,04,19,02,01,11.90
2016,04,19,02,02,11.90
2016,04,19,02,03,11.90
2016,04,19,02,04,11.90
2016,04,19,02,05,11.80
2016,04,19,02,06,11.80
2016,04,19,02,07,11.80
2016,04,19,02,08,11.80
2016,04,19,02,09,11.80
2016,04,19,02,10,11.80
2016,04,19,02,11,11.80
2016,04,19,02,12,11.80
2016,04,19,02,13,11.80
2016,04,19,02,14,11.70
2016,04,19,02,15,11.70
2016,04,19,02,16,11.70
2016,04,19,02,17,11.70
2016,04,19,02,18,11.70
2016,04,19,02,19,11.70
2016,04,19,02,20,11.70
2016,04,19,02,21,11.70
2016,04,19,02,22,11.70
2016,04,19,02,23,11.60
2016,04,19,02,24,11.60
2016,04,19,02,25,11.60
2016,04,19,02,26,11.60
2016,04,19,02,27,11.70
2016,04,19,02,28,11.70
2016,04,19,02,29,11.70
2016,04,19,02,30,11.70
2016,04,19,02,31,11.70
2016,04,19,02,32,11.70
2016,04,19,02,33,11.70
2016,04,19,02,34,11.70
2016,04,19,02,35,11.70
2016,04,19,02,36,11.70
2016,04,19,02,37,11.70
2016,04,19,02,38,11.80
2016,04,19,02,39,11.80
2016,04,19,02,40,11.80
2016,04,19,02,41,11.80
2016,04,19,02,42,11.80
2016,04,19,02,43,11.80
2016,04,19,02,44,11.80
2016,04,19,02,45,11.80
2016,04,19,02,46,11.70
2016,04,19,02,47,11.60
2016,04,19,02,48,11.60
2016,04,19,02,49,11.60
2016,04,19,02,50,11.60
2016,04,19,02,51,11.60
2016,04,19,02,52,11.50
2016,04,19,02,53,11.40
2016,04,19,02,54,11.40
2016,04,19,02,55,11.40
2016,04,19,02,56,11.40
2016,04,19,02,57,11.40
2016,04,19,02,58,11.40
2016,04,19,02,59,11.40
2016,04,19,03,00,11.40
2016,04,19,03,01,11.30
2016,04,19,03,02,11.30
2016,04,19,03,03,11.30
2016,04,19,03,04,11.30
2016,04,19,03,05,11.20
2016,04,19,03,06,11.20
2016,04,19,03,07,11.20
2016,04,19,03,08,11.10
2016,04,19,03,09,11.10
2016,04,19,03,10,11.10
2016,04,19,03,11,11.10
2016,04,19,03,12,11.10
2016,04,19,03,13,11.10
2016,04,19,03,14,11.10
2016,04,19,03,15,11.10
2016,04,19,03,16,11.00
2016,04,19,03,17,10.90
2016,04,19,03,18,10.90
2016,04,19,03,19,10.90
2016,04,19,03,20,10.90
2016,04,19,03,21,10.90
2016,04,19,03,22,10.90
2016,04,19,03,23,10.90
2016,04,19,03,24,10.90
2016,04,19,03,25,10.90
2016,04,19,03,26,10.90
2016,04,19,03,27,10.90
2016,04,19,03,28,10.90
2016,04,19,03,29,10.90
2016,04,19,03,30,10.90
2016,04,19,03,31,10.90
2016,04,19,03,32,10.90
2016,04,19,03,33,10.90
2016,04,19,03,34,10.90
2016,04,19,03,35,10.90
2016,04,19,03,36,10.90
2016,04,19,03,37,10.90
2016,04,19,03,38,10.90
2016,04,19,03,39,10.80
2016,04,19,03,40,10.80
2016,04,19,03,41,10.70
2016,04,19,03,42,10.70
2016,04,19,03,43,10.70
2016,04,19,03,44,10.70
2016,04,19,03,45,10.60
2016,04,19,03,46,10.60
2016,04,19,03,47,10.60
2016,04,19,03,48,10.60
2016,04,19,03,49,10.60
2016,04,19,03,50,10.60
2016,04,19,03,51,10.60
2016,04,19,03,52,10.60
2016,04,19,03,53,10.60
2016,04,19,03,54,10.60
2016,04,19,03,55,10.60
2016,04,19,03,56,10.60
2016,04,19,03,57,10.60
2016,04,19,03,58,10.60
2016,04,19,03,59,10.60
2016,04,19,04,00,10.60
2016,04,19,04,01,10.60
2016,04,19,04,02,10.60
2016,04,19,04,03,10.60
2016,04,19,04,04,10.60
2016,04,19,04,05,10.60
2016,04,19,04,06,10.60
2016,04,19,04,07,10.60
2016,04,19,04,08,10.60
2016,04,19,04,09,10.60
2016,04,19,04,10,10.60
2016,04,19,04,11,10.60
2016,04,19,04,12,10.60
2016,04,19,04,13,10.60
2016,04,19,04,14,10.60
2016,04,19,04,15,10.60
2016,04,19,04,16,10.50
2016,04,19,04,17,10.40
2016,04,19,04,18,10.50
2016,04,19,04,19,10.60
2016,04,19,04,20,10.60
2016,04,19,04,21,10.60
2016,04,19,04,22,10.60
2016,04,19,04,23,10.60
2016,04,19,04,24,10.60
2016,04,19,04,25,10.60
2016,04,19,04,26,10.60
2016,04,19,04,27,10.70
2016,04,19,04,28,10.70
2016,04,19,04,29,10.70
2016,04,19,04,30,10.60
2016,04,19,04,31,10.60
2016,04,19,04,32,10.60
2016,04,19,04,33,10.60
2016,04,19,04,34,10.60
2016,04,19,04,35,10.60
2016,04,19,04,36,10.60
2016,04,19,04,37,10.60
2016,04,19,04,38,10.60
2016,04,19,04,39,10.60
2016,04,19,04,40,10.60
2016,04,19,04,41,10.60
2016,04,19,04,42,10.60
2016,04,19,04,43,10.60
2016,04,19,04,44,10.60
2016,04,19,04,45,10.60
2016,04,19,04,46,10.60
2016,04,19,04,47,10.60
2016,04,19,04,48,10.60
2016,04,19,04,49,10.60
2016,04,19,04,50,10.60
2016,04,19,04,51,10.60
2016,04,19,04,52,10.60
2016,04,19,04,53,10.60
2016,04,19,04,54,10.60
2016,04,19,04,55,10.60
2016,04,19,04,56,10.70
2016,04,19,04,57,10.70
2016,04,19,04,58,10.70
2016,04,19,04,59,10.70
2016,04,19,05,00,10.70
2016,04,19,05,01,10.70
2016,04,19,05,02,10.70
2016,04,19,05,03,10.70
2016,04,19,05,04,10.70
2016,04,19,05,05,10.70
2016,04,19,05,06,10.70
2016,04,19,05,07,10.70
2016,04,19,05,08,10.70
2016,04,19,05,09,10.70
2016,04,19,05,10,10.70
2016,04,19,05,11,10.70
2016,04,19,05,12,10.70
2016,04,19,05,13,10.70
2016,04,19,05,14,10.70
2016,04,19,05,15,10.70
2016,04,19,05,16,10.70
2016,04,19,05,17,10.80
2016,04,19,05,18,10.80
2016,04,19,05,19,10.80
2016,04,19,05,20,10.80
2016,04,19,05,21,10.90
2016,04,19,05,22,10.90
2016,04,19,05,23,10.90
2016,04,19,05,24,10.90
2016,04,19,05,25,10.90
2016,04,19,05,26,10.90
2016,04,19,05,27,10.90
2016,04,19,05,28,10.90
2016,04,19,05,29,10.90
2016,04,19,05,30,10.90
2016,04,19,05,31,10.90
2016,04,19,05,32,10.90
2016,04,19,05,33,11.00
2016,04,19,05,34,11.10
2016,04,19,05,35,11.10
2016,04,19,05,36,11.10
2016,04,19,05,37,11.10
2016,04,19,05,38,11.10
2016,04,19,05,39,11.20
2016,04,19,05,40,11.20
2016,04,19,05,41,11.30
2016,04,19,05,42,11.30
2016,04,19,05,43,11.40
2016,04,19,05,44,11.40
2016,04,19,05,45,11.50
2016,04,19,05,46,11.60
2016,04,19,05,47,11.60
2016,04,19,05,48,11.60
2016,04,19,05,49,11.60
2016,04,19,05,50,11.70
2016,04,19,05,51,11.70
2016,04,19,05,52,11.80
2016,04,19,05,53,11.80
2016,04,19,05,54,11.80
2016,04,19,05,55,11.80
2016,04,19,05,56,11.90
2016,04,19,05,57,11.90
2016,04,19,05,58,11.90
2016,04,19,05,59,11.90
2016,04,19,06,00,11.90
2016,04,19,06,01,11.90
2016,04,19,06,02,11.90
2016,04,19,06,03,11.90
2016,04,19,06,04,12.00
2016,04,19,06,05,12.00
2016,04,19,06,06,12.00
2016,04,19,06,07,12.00
2016,04,19,06,08,12.00
2016,04,19,06,09,12.00
2016,04,19,06,10,12.10
2016,04,19,06,11,12.10
2016,04,19,06,12,12.10
2016,04,19,06,13,12.10
2016,04,19,06,14,12.10
2016,04,19,06,15,12.10
2016,04,19,06,16,12.20
2016,04,19,06,17,12.20
2016,04,19,06,18,12.20
2016,04,19,06,19,12.20
2016,04,19,06,20,12.20
2016,04,19,06,21,12.20
2016,04,19,06,22,12.20
2016,04,19,06,23,12.20
2016,04,19,06,24,12.20
2016,04,19,06,25,12.20
2016,04,19,06,26,12.30
2016,04,19,06,27,12.30
2016,04,19,06,28,12.30
2016,04,19,06,29,12.30
2016,04,19,06,30,12.30
2016,04,19,06,31,12.30
2016,04,19,06,32,12.30
2016,04,19,06,33,12.30
2016,04,19,06,34,12.40
2016,04,19,06,35,12.40
2016,04,19,06,36,12.40
2016,04,19,06,37,12.40
2016,04,19,06,38,12.40
2016,04,19,06,39,12.40
2016,04,19,06,40,12.50
2016,04,19,06,41,12.50
2016,04,19,06,42,12.50
2016,04,19,06,43,12.50
2016,04,19,06,44,12.50
2016,04,19,06,45,12.50
2016,04,19,06,46,12.50
2016,04,19,06,47,12.50
2016,04,19,06,48,12.50
2016,04,19,06,49,12.50
2016,04,19,06,50,12.50
2016,04,19,06,51,12.50
2016,04,19,06,52,12.50
2016,04,19,06,53,12.60
2016,04,19,06,54,12.60
2016,04,19,06,55,12.60
2016,04,19,06,56,12.60
2016,04,19,06,57,12.60
2016,04,19,06,58,12.70
2016,04,19,06,59,12.70
2016,04,19,07,00,12.70
2016,04,19,07,01,12.70
2016,04,19,07,02,12.70
2016,04,19,07,03,12.80
2016,04,19,07,04,12.80
2016,04,19,07,05,12.80
2016,04,19,07,06,12.80
2016,04,19,07,07,12.80
2016,04,19,07,08,12.80
2016,04,19,07,09,12.80
2016,04,19,07,10,12.80
2016,04,19,07,11,12.80
2016,04,19,07,12,12.80
2016,04,19,07,13,12.80
2016,04,19,07,14,12.80
2016,04,19,07,15,12.80
2016,04,19,07,16,12.80
2016,04,19,07,17,12.80
2016,04,19,07,18,12.90
2016,04,19,07,19,12.90
2016,04,19,07,20,12.90
2016,04,19,07,21,12.90
2016,04,19,07,22,12.90
2016,04,19,07,23,12.90
2016,04,19,07,24,12.90
2016,04,19,07,25,12.90
2016,04,19,07,26,12.90
2016,04,19,07,27,13.00
2016,04,19,07,28,13.00
2016,04,19,07,29,13.00
2016,04,19,07,30,13.10
2016,04,19,07,31,13.10
2016,04,19,07,32,13.10
2016,04,19,07,33,13.10
2016,04,19,07,34,13.20
2016,04,19,07,35,13.20
2016,04,19,07,36,13.20
2016,04,19,07,37,13.20
2016,04,19,07,38,13.20
2016,04,19,07,39,13.20
2016,04,19,07,40,13.30
2016,04,19,07,41,13.30
2016,04,19,07,42,13.30
2016,04,19,07,43,13.30
2016,04,19,07,44,13.30
2016,04,19,07,45,13.40
2016,04,19,07,46,13.40
2016,04,19,07,47,13.50
2016,04,19,07,48,13.50
2016,04,19,07,49,13.50
2016,04,19,07,50,13.60
2016,04,19,07,51,13.60
2016,04,19,07,52,13.70
2016,04,19,07,53,13.70
2016,04,19,07,54,13.80
2016,04,19,07,55,13.80
2016,04,19,07,56,13.90
2016,04,19,07,57,13.90
2016,04,19,07,58,14.00
2016,04,19,07,59,14.00
2016,04,19,08,00,14.10
2016,04,19,08,01,14.20
2016,04,19,08,02,14.20
2016,04,19,08,03,14.20
2016,04,19,08,04,14.30
2016,04,19,08,05,14.30
2016,04,19,08,06,14.40
2016,04,19,08,07,14.40
2016,04,19,08,08,14.50
2016,04,19,08,09,14.50
2016,04,19,08,10,14.60
2016,04,19,08,11,14.70
2016,04,19,08,12,14.80
2016,04,19,08,13,14.80
2016,04,19,08,14,14.80
2016,04,19,08,15,14.90
2016,04,19,08,16,15.00
2016,04,19,08,17,15.10
2016,04,19,08,18,15.20
2016,04,19,08,19,15.20
2016,04,19,08,20,15.30
2016,04,19,08,21,15.40
2016,04,19,08,22,15.40
2016,04,19,08,23,15.50
2016,04,19,08,24,15.60
2016,04,19,08,25,15.70
2016,04,19,08,26,15.70
2016,04,19,08,27,15.80
2016,04,19,08,28,15.80
2016,04,19,08,29,15.80
2016,04,19,08,30,15.90
2016,04,19,08,31,16.00
2016,04,19,08,32,16.10
2016,04,19,08,33,16.10
2016,04,19,08,34,16.20
2016,04,19,08,35,16.20
2016,04,19,08,36,16.30
2016,04,19,08,37,16.30
2016,04,19,08,38,16.40
2016,04,19,08,39,16.40
2016,04,19,08,40,16.40
2016,04,19,08,41,16.60
2016,04,19,08,42,16.60
2016,04,19,08,43,16.70
2016,04,19,08,44,16.70
2016,04,19,08,45,16.80
2016,04,19,08,46,16.90
2016,04,19,08,47,16.90
2016,04,19,08,48,17.00
2016,04,19,08,49,17.00
2016,04,19,08,50,17.10
2016,04,19,08,51,17.20
2016,04,19,08,52,17.30
2016,04,19,08,53,17.30
2016,04,19,08,54,17.30
2016,04,19,08,55,17.30
2016,04,19,08,56,17.30
2016,04,19,08,57,17.30
2016,04,19,08,58,17.30
2016,04,19,08,59,17.40
2016,04,19,09,00,17.50
2016,04,19,09,01,17.50
2016,04,19,09,02,17.50
2016,04,19,09,03,17.60
2016,04,19,09,04,17.70
2016,04,19,09,05,17.80
2016,04,19,09,06,17.80
2016,04,19,09,07,17.90
2016,04,19,09,08,17.90
2016,04,19,09,09,17.90
2016,04,19,09,10,17.90
2016,04,19,09,11,17.90
2016,04,19,09,12,17.90
2016,04,19,09,13,18.00
2016,04,19,09,14,18.10
2016,04,19,09,15,18.20
2016,04,19,09,16,18.20
2016,04,19,09,17,18.30
2016,04,19,09,18,18.30
2016,04,19,09,19,18.30
2016,04,19,09,20,18.30
2016,04,19,09,21,18.30
2016,04,19,09,22,18.30
2016,04,19,09,23,18.30
2016,04,19,09,24,18.40
2016,04,19,09,25,18.50
2016,04,19,09,26,18.60
2016,04,19,09,27,18.60
2016,04,19,09,28,18.70
2016,04,19,09,29,18.70
2016,04,19,09,30,18.80
2016,04,19,09,31,18.90
2016,04,19,09,32,18.90
2016,04,19,09,33,18.90
2016,04,19,09,34,18.90
2016,04,19,09,35,19.00
2016,04,19,09,36,19.10
2016,04,19,09,37,19.10
2016,04,19,09,38,19.10
2016,04,19,09,39,19.10
2016,04,19,09,40,19.10
2016,04,19,09,41,19.10
2016,04,19,09,42,19.10
2016,04,19,09,43,19.10
2016,04,19,09,44,19.10
2016,04,19,09,45,19.20
2016,04,19,09,46,19.20
2016,04,19,09,47,19.30
2016,04,19,09,48,19.30
2016,04,19,09,49,19.30
2016,04,19,09,50,19.40
2016,04,19,09,51,19.40
2016,04,19,09,52,19.50
2016,04,19,09,53,19.50
2016,04,19,09,54,19.40
2016,04,19,09,55,19.40
2016,04,19,09,56,19.50
2016,04,19,09,57,19.50
2016,04,19,09,58,19.60
2016,04,19,09,59,19.60
2016,04,19,10,00,19.70
2016,04,19,10,01,19.70
2016,04,19,10,02,19.80
2016,04,19,10,03,19.80
2016,04,19,10,04,19.90
2016,04,19,10,05,19.90
2016,04,19,10,06,19.90
2016,04,19,10,07,19.90
2016,04,19,10,08,19.90
2016,04,19,10,09,20.00
2016,04,19,10,10,19.90
2016,04,19,10,11,19.90
2016,04,19,10,12,19.90
2016,04,19,10,13,19.90
2016,04,19,10,14,19.90
2016,04,19,10,15,20.00
2016,04,19,10,16,20.10
2016,04,19,10,17,20.10
2016,04,19,10,18,19.90
2016,04,19,10,19,19.90
2016,04,19,10,20,19.90
2016,04,19,10,21,19.90
2016,04,19,10,22,19.90
2016,04,19,10,23,19.90
2016,04,19,10,24,19.90
2016,04,19,10,25,19.90
2016,04,19,10,26,19.90
2016,04,19,10,27,19.90
2016,04,19,10,28,19.80
2016,04,19,10,29,19.90
2016,04,19,10,30,19.90
2016,04,19,10,31,19.90
2016,04,19,10,32,20.00
2016,04,19,10,33,20.10
2016,04,19,10,34,20.10
2016,04,19,10,35,20.20
2016,04,19,10,36,20.20
2016,04,19,10,37,20.20
2016,04,19,10,38,20.20
2016,04,19,10,39,20.20
2016,04,19,10,40,20.30
2016,04,19,10,41,20.30
2016,04,19,10,42,20.40
2016,04,19,10,43,20.40
2016,04,19,10,44,20.40
2016,04,19,10,45,20.40
2016,04,19,10,46,20.40
2016,04,19,10,47,20.40
2016,04,19,10,48,20.30
2016,04,19,10,49,20.20
2016,04,19,10,50,20.20
2016,04,19,10,51,20.20
2016,04,19,10,52,20.10
2016,04,19,10,53,20.10
2016,04,19,10,54,20.10
2016,04,19,10,55,20.10
2016,04,19,10,56,20.10
2016,04,19,10,57,20.10
2016,04,19,10,58,20.10
2016,04,19,10,59,20.10
2016,04,19,11,00,20.20
2016,04,19,11,01,20.20
2016,04,19,11,02,20.40
2016,04,19,11,03,20.40
2016,04,19,11,04,20.50
2016,04,19,11,05,20.50
2016,04,19,11,06,20.50
2016,04,19,11,07,20.60
2016,04,19,11,08,20.60
2016,04,19,11,09,20.70
2016,04,19,11,10,20.80
2016,04,19,11,11,20.80
2016,04,19,11,12,20.70
2016,04,19,11,13,20.60
2016,04,19,11,14,20.60
2016,04,19,11,15,20.60
2016,04,19,11,16,20.60
2016,04,19,11,17,20.60
2016,04,19,11,18,20.60
2016,04,19,11,19,20.60
2016,04,19,11,20,20.50
2016,04,19,11,21,20.50
2016,04,19,11,22,20.60
2016,04,19,11,23,20.60
2016,04,19,11,24,20.60
2016,04,19,11,25,20.60
2016,04,19,11,26,20.70
2016,04,19,11,27,20.80
2016,04,19,11,28,20.80
2016,04,19,11,29,20.80
2016,04,19,11,30,20.80
2016,04,19,11,31,20.80
2016,04,19,11,32,20.80
2016,04,19,11,33,20.80
2016,04,19,11,34,20.80
2016,04,19,11,35,20.90
2016,04,19,11,36,20.90
2016,04,19,11,37,21.00
2016,04,19,11,38,21.10
2016,04,19,11,39,21.10
2016,04,19,11,40,21.10
2016,04,19,11,41,21.10
2016,04,19,11,42,21.20
2016,04,19,11,43,21.20
2016,04,19,11,44,21.20
2016,04,19,11,45,21.20
2016,04,19,11,46,21.10
2016,04,19,11,47,21.10
2016,04,19,11,48,21.10
2016,04,19,11,49,21.20
2016,04,19,11,50,21.20
2016,04,19,11,51,21.30
2016,04,19,11,52,21.40
2016,04,19,11,53,21.50
2016,04,19,11,54,21.60
2016,04,19,11,55,21.60
2016,04,19,11,56,21.60
2016,04,19,11,57,21.50
2016,04,19,11,58,21.30
2016,04,19,11,59,21.30
2016,04,19,12,00,21.30
2016,04,19,12,01,21.40
2016,04,19,12,02,21.40
2016,04,19,12,03,21.50
2016,04,19,12,04,21.60
2016,04,19,12,05,21.60
2016,04,19,12,06,21.50
2016,04,19,12,07,21.40
2016,04,19,12,08,21.40
2016,04,19,12,09,21.40
2016,04,19,12,10,21.50
2016,04,19,12,11,21.60
2016,04,19,12,12,21.70
2016,04,19,12,13,21.70
2016,04,19,12,14,21.70
2016,04,19,12,15,21.60
2016,04,19,12,16,21.70
2016,04,19,12,17,21.60
2016,04,19,12,18,21.60
2016,04,19,12,19,21.60
2016,04,19,12,20,21.70
2016,04,19,12,21,21.80
2016,04,19,12,22,21.80
2016,04,19,12,23,21.80
2016,04,19,12,24,21.80
2016,04,19,12,25,21.80
2016,04,19,12,26,21.80
2016,04,19,12,27,21.80
2016,04,19,12,28,21.70
2016,04,19,12,29,21.70
2016,04,19,12,30,21.80
2016,04,19,12,31,21.90
2016,04,19,12,32,21.90
2016,04,19,12,33,21.90
2016,04,19,12,34,21.90
2016,04,19,12,35,21.90
2016,04,19,12,36,21.80
2016,04,19,12,37,21.70
2016,04,19,12,38,21.70
2016,04,19,12,39,21.60
2016,04,19,12,40,21.60
2016,04,19,12,41,21.50
2016,04,19,12,42,21.40
2016,04,19,12,43,21.40
2016,04,19,12,44,21.30
2016,04,19,12,45,21.30
2016,04,19,12,46,21.20
2016,04,19,12,47,21.20
2016,04,19,12,48,21.20
2016,04,19,12,49,21.20
2016,04,19,12,50,21.20
2016,04,19,12,51,21.20
2016,04,19,12,52,21.20
2016,04,19,12,53,21.10
2016,04,19,12,54,21.10
2016,04,19,12,55,21.20
2016,04,19,12,56,21.20
2016,04,19,12,57,21.20
2016,04,19,12,58,21.30
2016,04,19,12,59,21.30
2016,04,19,13,00,21.30
2016,04,19,13,01,21.30
2016,04,19,13,02,21.30
2016,04,19,13,03,21.30
2016,04,19,13,04,21.40
2016,04,19,13,05,21.40
2016,04,19,13,06,21.40
2016,04,19,13,07,21.50
2016,04,19,13,08,21.60
2016,04,19,13,09,21.70
2016,04,19,13,10,21.80
2016,04,19,13,11,21.90
2016,04,19,13,12,22.00
2016,04,19,13,13,22.10
2016,04,19,13,14,22.20
2016,04,19,13,15,22.30
2016,04,19,13,16,22.30
2016,04,19,13,17,22.30
2016,04,19,13,18,22.30
2016,04,19,13,19,22.20
2016,04,19,13,20,22.20
2016,04,19,13,21,22.10
2016,04,19,13,22,22.00
2016,04,19,13,23,21.80
2016,04,19,13,24,21.70
2016,04,19,13,25,21.60
2016,04,19,13,26,21.60
2016,04,19,13,27,21.50
2016,04,19,13,28,21.60
2016,04,19,13,29,21.60
2016,04,19,13,30,21.50
2016,04,19,13,31,21.40
2016,04,19,13,32,21.50
2016,04,19,13,33,21.60
2016,04,19,13,34,21.60
2016,04,19,13,35,21.70
2016,04,19,13,36,21.80
2016,04,19,13,37,21.90
2016,04,19,13,38,21.90
2016,04,19,13,39,21.90
2016,04,19,13,40,21.90
2016,04,19,13,41,21.90
2016,04,19,13,42,21.80
2016,04,19,13,43,21.80
2016,04,19,13,44,21.70
2016,04,19,13,45,21.70
2016,04,19,13,46,21.60
2016,04,19,13,47,21.60
2016,04,19,13,48,21.60
2016,04,19,13,49,21.70
2016,04,19,13,50,21.90
2016,04,19,13,51,22.00
2016,04,19,13,52,22.00
2016,04,19,13,53,22.10
2016,04,19,13,54,22.20
2016,04,19,13,55,22.20
2016,04,19,13,56,22.20
2016,04,19,13,57,22.20
2016,04,19,13,58,22.20
2016,04,19,13,59,22.20
2016,04,19,14,00,22.20
2016,04,19,14,01,22.30
2016,04,19,14,02,22.30
2016,04,19,14,03,22.40
2016,04,19,14,04,22.50
2016,04,19,14,05,22.60
2016,04,19,14,06,22.70
2016,04,19,14,07,22.80
2016,04,19,14,08,22.90
2016,04,19,14,09,22.90
2016,04,19,14,10,22.90
2016,04,19,14,11,22.90
2016,04,19,14,12,22.80
2016,04,19,14,13,22.60
2016,04,19,14,14,22.60
2016,04,19,14,15,22.50
2016,04,19,14,16,22.40
2016,04,19,14,17,22.30
2016,04,19,14,18,22.30
2016,04,19,14,19,22.20
2016,04,19,14,20,22.10
2016,04,19,14,21,22.00
2016,04,19,14,22,21.90
2016,04,19,14,23,21.90
2016,04,19,14,24,21.90
2016,04,19,14,25,21.80
2016,04,19,14,26,21.80
2016,04,19,14,27,21.80
2016,04,19,14,28,21.80
2016,04,19,14,29,21.80
2016,04,19,14,30,21.80
2016,04,19,14,31,21.80
2016,04,19,14,32,21.80
2016,04,19,14,33,21.80
2016,04,19,14,34,21.80
2016,04,19,14,35,21.80
2016,04,19,14,36,21.80
2016,04,19,14,37,21.80
2016,04,19,14,38,21.80
2016,04,19,14,39,22.00
2016,04,19,14,40,22.10
2016,04,19,14,41,22.20
2016,04,19,14,42,22.30
2016,04,19,14,43,22.40
2016,04,19,14,44,22.40
2016,04,19,14,45,22.50
2016,04,19,14,46,22.70
2016,04,19,14,47,22.80
2016,04,19,14,48,22.90
2016,04,19,14,49,23.00
2016,04,19,14,50,23.10
2016,04,19,14,51,23.20
2016,04,19,14,52,23.20
2016,04,19,14,53,23.20
2016,04,19,14,54,23.10
2016,04,19,14,55,22.90
2016,04,19,14,56,22.80
2016,04,19,14,57,22.80
2016,04,19,14,58,22.80
2016,04,19,14,59,22.80
2016,04,19,15,00,22.80
2016,04,19,15,01,22.80
2016,04,19,15,02,22.90
2016,04,19,15,03,22.80
2016,04,19,15,04,22.80
2016,04,19,15,05,22.70
2016,04,19,15,06,22.50
2016,04,19,15,07,22.30
2016,04,19,15,08,22.30
2016,04,19,15,09,22.20
2016,04,19,15,10,22.20
2016,04,19,15,11,22.10
2016,04,19,15,12,22.20
2016,04,19,15,13,22.30
2016,04,19,15,14,22.30
2016,04,19,15,15,22.40
2016,04,19,15,16,22.50
2016,04,19,15,17,22.50
2016,04,19,15,18,22.50
2016,04,19,15,19,22.50
2016,04,19,15,20,22.60
2016,04,19,15,21,22.60
2016,04,19,15,22,22.70
2016,04,19,15,23,22.60
2016,04,19,15,24,22.50
2016,04,19,15,25,22.50
2016,04,19,15,26,22.50
2016,04,19,15,27,22.60
2016,04,19,15,28,22.70
2016,04,19,15,29,22.80
2016,04,19,15,30,22.80
2016,04,19,15,31,22.90
2016,04,19,15,32,23.00
2016,04,19,15,33,23.20
2016,04,19,15,34,23.30
2016,04,19,15,35,23.40
2016,04,19,15,36,23.60
2016,04,19,15,37,23.60
2016,04,19,15,38,23.70
2016,04,19,15,39,23.60
2016,04,19,15,40,23.60
2016,04,19,15,41,23.60
2016,04,19,15,42,23.70
2016,04,19,15,43,23.80
2016,04,19,15,44,23.90
2016,04,19,15,45,24.00
2016,04,19,15,46,24.10
2016,04,19,15,47,24.10
2016,04,19,15,48,24.20
2016,04,19,15,49,24.30
2016,04,19,15,50,24.30
2016,04,19,15,51,24.40
2016,04,19,15,52,24.40
2016,04,19,15,53,24.50
2016,04,19,15,54,24.40
2016,04,19,15,55,24.30
2016,04,19,15,56,24.20
2016,04,19,15,57,24.20
2016,04,19,15,58,24.20
2016,04,19,15,59,24.20
2016,04,19,16,00,24.20
2016,04,19,16,01,24.30
2016,04,19,16,02,24.30
2016,04,19,16,03,24.30
2016,04,19,16,04,24.40
2016,04,19,16,05,24.40
2016,04,19,16,06,24.40
2016,04,19,16,07,24.40
2016,04,19,16,08,24.30
2016,04,19,16,09,24.30
2016,04,19,16,10,24.30
2016,04,19,16,11,24.10
2016,04,19,16,12,24.10
2016,04,19,16,13,24.10
2016,04,19,16,14,24.10
2016,04,19,16,15,24.30
2016,04,19,16,16,24.30
2016,04,19,16,17,24.40
2016,04,19,16,18,24.50
2016,04,19,16,19,24.60
2016,04,19,16,20,24.60
2016,04,19,16,21,24.50
2016,04,19,16,22,24.50
2016,04,19,16,23,24.40
2016,04,19,16,24,24.40
2016,04,19,16,25,24.40
2016,04,19,16,26,24.40
2016,04,19,16,27,24.50
2016,04,19,16,28,24.50
2016,04,19,16,29,24.60
2016,04,19,16,30,24.60
2016,04,19,16,31,24.60
2016,04,19,16,32,24.60
2016,04,19,16,33,24.60
2016,04,19,16,34,24.50
2016,04,19,16,35,24.50
2016,04,19,16,36,24.40
2016,04,19,16,37,24.30
2016,04,19,16,38,24.20
2016,04,19,16,39,24.20
2016,04,19,16,40,24.20
2016,04,19,16,41,24.20
2016,04,19,16,42,24.30
2016,04,19,16,43,24.40
2016,04,19,16,44,24.50
2016,04,19,16,45,24.60
2016,04,19,16,46,24.70
2016,04,19,16,47,24.90
2016,04,19,16,48,24.90
2016,04,19,16,49,25.00
2016,04,19,16,50,25.00
2016,04,19,16,51,25.00
2016,04,19,16,52,25.00
2016,04,19,16,53,25.00
2016,04,19,16,54,25.00
2016,04,19,16,55,25.00
2016,04,19,16,56,25.00
2016,04,19,16,57,25.00
2016,04,19,16,58,24.90
2016,04,19,16,59,24.90
2016,04,19,17,00,24.90
2016,04,19,17,01,24.90
2016,04,19,17,02,24.90
2016,04,19,17,03,25.00
2016,04,19,17,04,25.00
2016,04,19,17,05,25.00
2016,04,19,17,06,25.00
2016,04,19,17,07,24.90
2016,04,19,17,08,24.90
2016,04,19,17,09,24.90
2016,04,19,17,10,24.80
2016,04,19,17,11,24.80
2016,04,19,17,12,24.70
2016,04,19,17,13,24.60
2016,04,19,17,14,24.50
2016,04,19,17,15,24.40
2016,04,19,17,16,24.30
2016,04,19,17,17,24.20
2016,04,19,17,18,24.20
2016,04,19,17,19,24.20